VIDP

Delhi/Indira Gandhi International (IGI) Airport

Airport
ICAO code
VIDP
IATA Code
DEL
Summary
ICAO Region
APAC
ICAO Territory
Location

Palam, National Capitol Region of Delhi

Serving
New Delhi
Elevation
777 ft
Coordinates
28° 33' 30" N , 77° 5' 38" E
KCC
Airport BS
Bird Strike
Airport LOS
Parallel Runway Operation
Airport WX
Fog
Metar
Observation
VIDP 272130Z 25004KT 1200 R28/P2000 R29L/P2000 BR NSC 08/07 Q1016 NOSIG
Station
New Delhi / Palam
Date/Time
2023-01-27 21:30:00
Wind direction
250°
Wind speed
04 kts
Lowest cloud amount
nil significant cloud
Temperature
8°C
Dew point
7°C
Humidity
93%
QNH
1016 hPa
Weather condition
n/a

International airport serving the city of New Delhi.

Climatology

Humid “subtropical” climate (Köppen climate classification Cwa) - characterized by hot, humid summers and cool winters.

Overnight radiation fog in winter is a well-recognised problem.

SKYbrary Partners:

Safety knowledge contributed by: